Vertical_Velocity
-0 -0 -2 -3 -3 7 -5 -3 -6 8 -1 1 -8 -12 -10 -3 0 -9 -7 -4 -0 2 0 -1 -6 -9 -2 -1 -6 -2 2 6 3 -11 5 3 -7 3 11 -10 4 14 -2 3
-2 -4 -0 -2 0 -1 -1 -2 -6 -5 -3 3 1 -17 5 5 -3 -6 -4 -1 0 -1 -2 -11 -4 -4 2 1 -3 -6 3 1 -1 1 6 -5 8 14 11 13 -8 4 -5 -10
-1 -4 -2 0 -1 -0 2 0 -4 -5 2 4 0 -12 -1 -2 -4 -1 6 7 0 2 4 2 0 -5 -1 0 1 -1 2 3 -6 -11 14 3 4 10 12 10 -22 -11 4 3
-3 -1 -2 -3 -3 -3 -4 -1 3 3 11 -4 1 -13 -1 -0 2 -3 -2 3 3 1 -5 -5 -2 -3 -0 -1 2 0 -2 -1 4 -8 70 11 10 17 7 -5 -5 1 7 -7
-3 1 1 0 -1 1 -1 4 -2 -1 12 0 -1 3 -8 -1 -1 -7 -6 -2 -4 -6 -5 3 2 3 -1 -2 -3 -4 -2 2 -3 -22 47 50 18 2 6 11 9 10 8 8
3 1 1 1 1 3 -1 -0 -1 10 -5 1 4 0 4 -8 -9 -5 -3 -4 -3 -4 4 7 4 13 5 -2 -6 -5 6 0 -9 -8 13 -4 -5 20 9 22 -0 2 7 18
-2 -0 -2 -2 -4 -1 6 10 -3 -0 -2 -3 3 7 8 -9 -4 -3 -2 1 4 1 11 22 28 -4 15 0 -4 5 3 -1 -6 10 2 3 -7 -9 -7 1 2 12 3 -2
-3 -8 -9 -5 -0 10 7 6 3 3 1 2 3 -1 -1 7 1 6 -1 9 15 -7 -8 22 19 5 4 24 11 28 5 16 9 17 -2 7 0 -4 3 -10 -5 -7 -7 -7
-4 -4 -5 -0 1 -1 -2 1 -1 -0 2 -4 0 2 0 5 -0 -4 -8 2 16 12 -1 -4 -12 2 -2 7 20 -9 -9 -5 -20 -8 -11 -0 13 18 6 1 -2 -6 0 2
-3 -4 -4 -1 2 0 -2 4 3 -1 -1 -1 -2 1 8 3 8 9 7 6 11 3 3 3 3 1 -5 -0 2 -2 0 2 12 13 8 -9 -16 5 1 -3 -4 -16 -7 -2
-0 2 1 0 -0 3 -1 5 7 -2 -1 -0 0 0 3 6 7 10 18 15 1 1 -3 -5 -6 -6 0 5 1 -5 -4 -4 -3 -6 -8 -4 6 1 7 1 6 16 11 5
-1 0 -5 1 5 4 8 -2 4 1 -3 1 -6 -3 -6 -0 16 15 6 4 5 5 2 0 2 4 2 -1 0 0 2 -2 -6 1 6 4 2 -4 -0 -1 -7 -13 -11 -1
-3 -2 -3 -3 -2 3 -2 1 2 8 0 -2 -2 -4 0 2 8 5 5 3 -2 -3 -2 -1 1 -1 -4 -6 -1 1 3 5 8 7 5 -2 -2 7 2 -3 -5 -2 -4 0
3 3 -2 -2 -0 1 -5 1 2 3 -0 0 -1 -9 -1 2 0 -1 0 3 2 -1 -1 -1 0 2 1 -3 0 1 1 -2 -4 2 3 1 -1 -2 2 -1 -6 5 2 3
-2 -3 -1 0 1 -0 0 -3 2 -5 -2 -2 -4 1 1 -1 -2 -0 0 -1 -0 3 3 2 1 -2 1 4 1 -1 -1 0 -1 -7 2 3 -0 -5 -5 -3 -4 -4 -1 -2
-0 -2 -2 -3 -2 2 2 -1 -2 -1 -4 -5 -3 -1 -0 -0 -1 -0 3 3 -0 -8 -6 -1 -3 -1 4 -6 -4 -2 4 -0 0 2 -0 -9 -4 4 -1 6 5 5 2 4
1 1 0 -2 -2 -3 -4 -2 0 -2 -3 2 -4 -2 -1 -0 0 -0 -3 -3 -2 -4 -1 3 6 3 -19 -1 1 2 14 -1 3 4 7 4 6 6 -1 -2 -4 -5 2 1
-0 0 0 -1 -1 -5 -1 -1 -2 -2 -2 -3 -2 -0 -0 -0 -1 1 3 6 4 4 3 -5 -8 -14 2 -0 0 -5 -2 -14 -14 -10 -7 -3 -6 -4 2 5 1 -0 3 2
0 0 -1 -0 -1 -4 -3 -5 -2 -1 0 -3 -3 -6 1 -1 -1 2 2 -1 -4 -3 -2 -9 -5 2 -6 -5 -4 3 2 -2 -4 -2 -7 -2 -3 -2 -2 0 3 8 0 8
1 1 1 1 -0 -2 -3 -3 -1 -2 -17 -3 -3 -5 -3 -1 -4 -4 -2 -4 -3 -1 1 -2 3 6 3 3 2 -0 -2 -2 -2 -1 -4 -0 -2 -6 -1 2 2 -1 -6 -6
-2 -3 -1 1 -3 -5 -2 -2 -4 -3 -5 -4 -4 -3 -3 -3 -3 -2 -3 -1 -3 -7 -4 2 2 2 1 -1 -3 -2 -3 -4 -3 1 -5 3 1 -3 -2 -2 1 1 -3 -5
0 0 -1 1 0 -6 -2 0 -7 -1 -0 -1 -2 -0 -2 -7 -7 -6 -8 -6 -1 -2 -1 0 1 -2 -7 -9 -12 -8 -1 6 2 4 7 1 -3 -8 -6 -7 5 4 -7 -11
-3 -2 -1 -4 -2 -1 -1 -2 -1 -2 -2 -2 -3 -2 -3 -2 -0 2 -0 -1 -2 -4 -3 -4 -5 -3 -3 -2 -3 -3 -3 -4 -2 3 -1 -3 1 2 4 -2 -3 -8 -0 -5
-1 4 -6 1 1 0 -1 -0 -2 -1 -0 -0 -0 -1 -1 -3 -2 0 -0 -1 1 1 -1 -2 -2 -3 -5 -4 3 -0 -6 -9 -10 -10 -8 -6 -7 -6 -1 -0 -3 -7 -5 -1
2 2 -0 -9 1 0 3 3 5 0 -2 -1 -1 1 2 3 3 3 -0 1 2 3 2 5 6 3 -2 -4 -4 -5 -3 -3 -1 -2 -2 -2 -3 -5 -8 -3 -6 -5 8 -4
4 -3 -2 -10 2 -2 0 1 -1 1 2 0 -1 -2 -2 -1 2 2 0 1 2 -1 -2 -1 -2 -1 -2 -2 -3 -4 -4 -4 -5 -4 -3 -4 -6 -5 -5 -8 -5 15 0 -4
Height
3060 3060 3060 3059 3058 3055 3054 3050 3046 3043 3042 3039 3033 3027 3025 3024 3024 3023 3024 3025 3028 3032 3042 3048 3052 3057 3060 3062 3063 3065 3065 3067 3066 3065 3057 3060 3066 3073 3081 3089 3095 3101 3109 3116
3061 3057 3056 3055 3054 3052 3050 3047 3042 3038 3039 3037 3029 3021 3017 3015 3013 3016 3018 3019 3024 3029 3036 3043 3047 3051 3054 3055 3056 3057 3058 3059 3060 3056 3051 3054 3064 3069 3076 3081 3090 3096 3100 3110
3058 3056 3053 3051 3051 3049 3047 3043 3040 3039 3036 3031 3026 3016 3013 3010 3012 3012 3014 3018 3021 3026 3032 3038 3041 3043 3047 3049 3049 3050 3050 3054 3053 3053 3045 3051 3059 3063 3069 3072 3076 3090 3097 3105
3057 3055 3053 3050 3048 3047 3043 3042 3040 3037 3036 3031 3029 3024 3015 3012 3012 3013 3015 3017 3020 3024 3029 3033 3037 3039 3041 3042 3042 3043 3045 3047 3051 3050 3043 3045 3051 3055 3062 3068 3078 3085 3092 3098
3059 3054 3052 3050 3048 3046 3043 3040 3038 3035 3033 3029 3026 3029 3017 3015 3015 3015 3016 3018 3020 3022 3027 3031 3033 3035 3036 3036 3036 3037 3039 3041 3042 3046 3042 3042 3046 3052 3059 3066 3074 3081 3087 3094
3056 3054 3052 3049 3047 3044 3042 3039 3035 3032 3032 3029 3024 3026 3018 3017 3015 3013 3014 3016 3019 3021 3025 3028 3031 3032 3033 3030 3027 3027 3030 3035 3040 3040 3042 3045 3047 3051 3057 3063 3069 3075 3079 3086
3055 3055 3053 3050 3045 3041 3039 3037 3036 3033 3033 3029 3024 3024 3021 3017 3012 3010 3013 3016 3017 3019 3022 3025 3026 3029 3028 3028 3024 3022 3025 3031 3037 3039 3041 3043 3047 3052 3056 3062 3066 3072 3076 3080
3059 3057 3055 3050 3047 3042 3038 3036 3034 3030 3030 3028 3026 3026 3022 3016 3014 3014 3015 3014 3015 3013 3014 3019 3025 3027 3027 3026 3020 3021 3025 3031 3032 3038 3039 3042 3047 3050 3055 3059 3063 3066 3071 3075
3061 3060 3055 3051 3047 3045 3039 3036 3036 3033 3028 3033 3031 3028 3024 3017 3016 3016 3016 3016 3013 3014 3018 3021 3025 3028 3028 3026 3026 3027 3027 3032 3038 3039 3042 3045 3047 3054 3056 3059 3062 3063 3068 3072
3062 3059 3055 3052 3049 3047 3041 3036 3036 3034 3032 3035 3033 3030 3030 3022 3019 3018 3017 3017 3018 3018 3023 3027 3030 3031 3030 3032 3033 3034 3036 3039 3040 3041 3041 3040 3048 3053 3053 3057 3059 3062 3065 3067
3061 3060 3056 3052 3050 3046 3042 3037 3036 3038 3035 3037 3038 3040 3033 3029 3026 3023 3023 3022 3024 3027 3029 3032 3033 3034 3036 3037 3039 3040 3041 3042 3044 3047 3047 3048 3052 3052 3053 3053 3054 3059 3059 3059
3061 3058 3053 3051 3050 3047 3043 3040 3036 3037 3041 3036 3041 3047 3040 3033 3032 3030 3029 3031 3032 3032 3033 3036 3038 3039 3040 3041 3042 3043 3044 3044 3046 3046 3046 3047 3048 3050 3052 3054 3055 3056 3057 3057
3062 3058 3053 3050 3053 3049 3044 3041 3038 3036 3039 3038 3039 3046 3041 3039 3040 3039 3039 3039 3040 3041 3042 3043 3043 3044 3044 3045 3045 3045 3045 3045 3045 3044 3043 3043 3044 3044 3044 3044 3047 3048 3048 3047
3061 3060 3058 3059 3057 3055 3049 3044 3038 3036 3037 3039 3040 3042 3043 3045 3045 3044 3043 3043 3043 3044 3045 3045 3044 3044 3044 3045 3044 3044 3044 3044 3044 3044 3042 3041 3041 3040 3040 3039 3039 3040 3038 3039
3063 3062 3059 3057 3056 3055 3053 3048 3045 3042 3041 3041 3042 3043 3044 3046 3046 3046 3046 3045 3045 3044 3043 3042 3042 3042 3042 3041 3041 3041 3039 3039 3037 3037 3037 3035 3034 3034 3034 3034 3033 3031 3030 3030
3063 3062 3061 3058 3056 3054 3053 3052 3049 3047 3045 3045 3045 3045 3046 3046 3046 3047 3047 3047 3046 3045 3044 3042 3042 3041 3041 3039 3038 3035 3034 3033 3031 3030 3029 3029 3027 3024 3023 3022 3020 3018 3017 3016
3063 3062 3060 3058 3056 3054 3053 3051 3050 3048 3047 3047 3047 3047 3047 3047 3047 3047 3047 3046 3045 3044 3043 3043 3040 3039 3038 3037 3035 3031 3031 3028 3024 3023 3021 3019 3018 3016 3014 3010 3007 3005 3002 3000
3063 3061 3060 3058 3056 3057 3049 3049 3049 3048 3047 3046 3045 3045 3045 3046 3046 3047 3047 3046 3044 3043 3041 3039 3038 3037 3034 3032 3030 3028 3025 3023 3021 3018 3015 3012 3007 3003 2999 2993 2992 2989 2984 2980
3062 3061 3059 3058 3055 3051 3047 3048 3048 3047 3046 3044 3044 3044 3045 3045 3045 3045 3044 3044 3043 3042 3040 3038 3037 3034 3031 3028 3025 3023 3019 3017 3013 3009 3005 2999 2993 2989 2985 2980 2977 2972 2966 2961
3059 3059 3060 3057 3056 3052 3047 3046 3046 3047 3043 3043 3043 3043 3043 3044 3044 3044 3043 3043 3041 3039 3038 3036 3032 3029 3026 3023 3020 3016 3013 3009 3004 2999 2994 2988 2981 2977 2973 2968 2962 2956 2948 2945
3058 3057 3056 3055 3053 3046 3044 3045 3046 3048 3046 3041 3043 3044 3043 3043 3043 3042 3041 3040 3038 3036 3031 3027 3025 3021 3018 3014 3009 3005 3000 2996 2991 2987 2984 2979 2972 2965 2959 2953 2948 2941 2935 2929
3057 3055 3053 3052 3051 3044 3041 3042 3042 3041 3040 3040 3041 3041 3040 3040 3038 3037 3035 3032 3029 3027 3024 3021 3018 3014 3010 3004 2998 2993 2987 2983 2978 2972 2967 2962 2957 2952 2946 2939 2933 2927 2922 2918
3053 3053 3051 3050 3044 3042 3041 3041 3040 3038 3038 3038 3038 3037 3036 3033 3032 3032 3030 3028 3024 3021 3016 3013 3008 3003 2996 2990 2984 2980 2976 2969 2962 2955 2950 2945 2941 2936 2931 2925 2920 2915 2910 2905
3049 3048 3045 3044 3040 3039 3038 3038 3037 3036 3035 3034 3033 3032 3031 3030 3029 3027 3025 3022 3019 3016 3012 3007 3002 2997 2992 2984 2977 2972 2968 2963 2957 2951 2945 2939 2932 2927 2921 2915 2908 2902 2897 2892
3043 3041 3037 3033 3033 3034 3034 3033 3033 3031 3030 3030 3029 3028 3026 3024 3022 3020 3017 3014 3011 3007 3003 2999 2996 2993 2989 2983 2976 2970 2964 2956 2950 2943 2936 2930 2923 2916 2910 2905 2898 2891 2886 2880
3032 3030 3027 3023 3025 3025 3026 3027 3027 3027 3027 3025 3024 3023 3022 3021 3019 3017 3015 3013 3009 3005 3002 2997 2993 2987 2981 2975 2969 2963 2956 2949 2942 2935 2928 2921 2913 2907 2901 2894 2887 2884 2875 2870